| time (UTC) | temp C | wind direction | speed KPH | gust KPH | rain 1hr cm | rain 24hr cm | rain mn cm | humidity % | barometer mb |
| 20260502152042 | 10 | 0 | 1.6 | 6.4 | 0.00 | 0.03 | 0.00 | 56 | 1018.9 |
| 20260502151556 | 10 | 355 | 0.0 | 6.4 | 0.00 | 0.03 | 0.00 | 54 | 1019.0 |
| 20260502151041 | 10 | 0 | 0.0 | 6.4 | 0.00 | 0.03 | 0.00 | 56 | 1018.9 |
| 20260502150541 | 10 | 0 | 0.0 | 12.9 | 0.00 | 0.03 | 0.00 | 57 | 1018.9 |
| 20260502130548 | 2 | 0 | 0.0 | 4.8 | 0.00 | 0.03 | 0.00 | 93 | 1019.4 |
| 20260502123545 | 0 | 0 | 0.0 | 1.6 | 0.00 | 0.03 | 0.00 | 92 | 1019.4 |
| 20260502123053 | 0 | 0 | 0.0 | 0.0 | 0.00 | 0.03 | 0.00 | 92 | 1019.4 |
| 20260502122545 | 0 | 0 | 0.0 | 0.0 | 0.00 | 0.03 | 0.00 | 91 | 1019.4 |
| 20260502122046 | 0 | 0 | 0.0 | 0.0 | 0.00 | 0.03 | 0.00 | 91 | 1019.3 |
| 20260502121554 | 0 | 0 | 0.0 | 0.0 | 0.00 | 0.03 | 0.00 | 91 | 1019.3 |
| 20260502121046 | 0 | 0 | 0.0 | 0.0 | 0.00 | 0.03 | 0.00 | 91 | 1019.3 |
| 20260502120545 | -1 | 0 | 0.0 | 0.0 | 0.00 | 0.03 | 0.00 | 90 | 1019.3 |
| 20260502120107 | -1 | 0 | 0.0 | 0.0 | 0.00 | 0.03 | 0.00 | 90 | 1019.2 |
| 20260502115548 | -1 | 0 | 0.0 | 0.0 | 0.00 | 0.03 | 0.00 | 90 | 1019.2 |
| 20260502115045 | -1 | 0 | 0.0 | 0.0 | 0.00 | 0.03 | 0.00 | 90 | 1019.1 |
| 20260502114625 | -1 | 0 | 0.0 | 0.0 | 0.00 | 0.03 | 0.00 | 89 | 1019.1 |
| 20260502114047 | -1 | 0 | 0.0 | 0.0 | 0.00 | 0.03 | 0.00 | 89 | 1019.0 |
| 20260502113547 | -1 | 0 | 0.0 | 0.0 | 0.00 | 0.03 | 0.00 | 89 | 1018.9 |
| 20260502113050 | -1 | 0 | 0.0 | 0.0 | 0.00 | 0.03 | 0.00 | 89 | 1019.0 |
| 20260502112546 | -1 | 0 | 0.0 | 1.6 | 0.00 | 0.03 | 0.00 | 89 | 1019.0 |
| 20260502112046 | -1 | 0 | 0.0 | 1.6 | 0.00 | 0.03 | 0.00 | 89 | 1019.0 |
| 20260502111549 | -1 | 0 | 0.0 | 0.0 | 0.00 | 0.03 | 0.00 | 88 | 1018.9 |
| 20260502111046 | -1 | 0 | 0.0 | 0.0 | 0.00 | 0.03 | 0.00 | 88 | 1018.9 |
| 20260502110546 | -1 | 0 | 0.0 | 0.0 | 0.00 | 0.03 | 0.00 | 88 | 1019.0 |
| 20260502110051 | -1 | 0 | 0.0 | 0.0 | 0.00 | 0.03 | 0.00 | 88 | 1018.9 |
| 20260502105549 | -1 | 0 | 0.0 | 0.0 | 0.00 | 0.03 | 0.00 | 88 | 1018.9 |
| 20260502105046 | -1 | 0 | 0.0 | 0.0 | 0.00 | 0.03 | 0.00 | 88 | 1018.9 |
| 20260502104557 | -1 | 0 | 0.0 | 0.0 | 0.00 | 0.03 | 0.00 | 88 | 1018.9 |
| 20260502104047 | -1 | 0 | 0.0 | 0.0 | 0.00 | 0.03 | 0.00 | 88 | 1018.9 |
| 20260502103548 | -1 | 0 | 0.0 | 0.0 | 0.00 | 0.03 | 0.00 | 88 | 1018.8 |
| 20260502103052 | -1 | 0 | 0.0 | 0.0 | 0.00 | 0.03 | 0.00 | 88 | 1018.8 |
| 20260502102547 | -1 | 0 | 0.0 | 0.0 | 0.00 | 0.03 | 0.00 | 88 | 1018.8 |
| 20260502102047 | -1 | 0 | 0.0 | 0.0 | 0.00 | 0.03 | 0.00 | 88 | 1018.7 |
| 20260502101611 | -1 | 0 | 0.0 | 0.0 | 0.00 | 0.03 | 0.00 | 88 | 1018.8 |
| 20260502101046 | -1 | 0 | 0.0 | 0.0 | 0.00 | 0.03 | 0.00 | 88 | 1018.8 |
| 20260502100547 | -1 | 0 | 0.0 | 0.0 | 0.00 | 0.03 | 0.00 | 88 | 1018.8 |
| 20260502100113 | -1 | 0 | 0.0 | 0.0 | 0.00 | 0.03 | 0.00 | 88 | 1018.8 |
| 20260502091046 | -1 | 0 | 0.0 | 0.0 | 0.00 | 0.03 | 0.00 | 87 | 1018.7 |
| 20260502090547 | -1 | 0 | 0.0 | 0.0 | 0.00 | 0.03 | 0.00 | 87 | 1018.6 |
| 20260502071047 | 0 | 0 | 0.0 | 0.0 | 0.00 | 0.03 | 0.00 | 86 | 1018.7 |
| 20260502070546 | 0 | 0 | 0.0 | 0.0 | 0.00 | 0.03 | 0.00 | 86 | 1018.8 |
| 20260502070104 | 0 | 0 | 0.0 | 0.0 | 0.00 | 0.03 | 0.00 | 86 | 1018.8 |
| 20260502065548 | 0 | 0 | 0.0 | 0.0 | 0.00 | 0.03 | 0.00 | 86 | 1018.8 |
| 20260502065043 | 0 | 0 | 0.0 | 0.0 | 0.00 | 0.03 | 0.00 | 86 | 1018.8 |
| 20260502064614 | 0 | 0 | 0.0 | 0.0 | 0.00 | 0.03 | 0.00 | 86 | 1018.9 |
| 20260502064043 | 0 | 0 | 0.0 | 0.0 | 0.00 | 0.03 | 0.00 | 86 | 1018.8 |
| 20260502063545 | 0 | 0 | 0.0 | 0.0 | 0.00 | 0.03 | 0.00 | 86 | 1018.8 |
| 20260502063113 | 0 | 0 | 0.0 | 0.0 | 0.00 | 0.03 | 0.00 | 86 | 1018.8 |
| 20260502062546 | 0 | 0 | 0.0 | 0.0 | 0.00 | 0.03 | 0.00 | 85 | 1018.9 |
| 20260502062047 | 0 | 0 | 0.0 | 0.0 | 0.00 | 0.03 | 0.00 | 85 | 1018.9 |
| 20260502061554 | 0 | 0 | 0.0 | 0.0 | 0.00 | 0.03 | 0.00 | 85 | 1018.9 |
| 20260502061047 | 0 | 0 | 0.0 | 0.0 | 0.00 | 0.03 | 0.00 | 85 | 1018.9 |
| 20260502060552 | 0 | 0 | 0.0 | 0.0 | 0.00 | 0.03 | 0.00 | 85 | 1018.9 |
| 20260502060056 | 0 | 0 | 0.0 | 0.0 | 0.00 | 0.03 | 0.00 | 85 | 1019.0 |
| 20260502055550 | 0 | 0 | 0.0 | 0.0 | 0.00 | 0.05 | 0.00 | 84 | 1018.9 |
| 20260502055046 | 0 | 0 | 0.0 | 0.0 | 0.00 | 0.05 | 0.00 | 84 | 1019.2 |
| 20260502054555 | 0 | 0 | 0.0 | 0.0 | 0.00 | 0.05 | 0.00 | 84 | 1019.1 |
| 20260502054047 | 0 | 0 | 0.0 | 0.0 | 0.00 | 0.05 | 0.00 | 84 | 1019.0 |
| 20260502053546 | 0 | 0 | 0.0 | 0.0 | 0.00 | 0.05 | 0.00 | 83 | 1019.1 |
| 20260502053057 | 0 | 0 | 0.0 | 0.0 | 0.00 | 0.05 | 0.00 | 83 | 1019.0 |
| 20260502052546 | 0 | 0 | 0.0 | 0.0 | 0.00 | 0.05 | 0.00 | 83 | 1018.9 |
| 20260502052048 | 0 | 0 | 0.0 | 0.0 | 0.00 | 0.05 | 0.00 | 83 | 1019.1 |
| 20260502051551 | 0 | 0 | 0.0 | 0.0 | 0.00 | 0.05 | 0.00 | 83 | 1019.0 |
| 20260502051046 | 0 | 0 | 0.0 | 1.6 | 0.00 | 0.05 | 0.00 | 82 | 1019.1 |
| 20260502050542 | 0 | 0 | 0.0 | 1.6 | 0.00 | 0.05 | 0.00 | 82 | 1019.1 |
| 20260502050055 | 0 | 0 | 0.0 | 1.6 | 0.00 | 0.05 | 0.00 | 82 | 1019.1 |
| 20260502045546 | 0 | 0 | 0.0 | 0.0 | 0.00 | 0.10 | 0.05 | 82 | 1018.9 |
| 20260502045043 | 0 | 0 | 0.0 | 0.0 | 0.00 | 0.10 | 0.05 | 82 | 1019.0 |
| 20260502044556 | 0 | 0 | 0.0 | 0.0 | 0.00 | 0.10 | 0.05 | 82 | 1019.1 |
| 20260502044045 | 0 | 0 | 0.0 | 0.0 | 0.00 | 0.10 | 0.05 | 82 | 1019.0 |
| 20260502043545 | 0 | 0 | 0.0 | 0.0 | 0.00 | 0.10 | 0.05 | 82 | 1019.0 |
| 20260502043123 | 0 | 0 | 0.0 | 0.0 | 0.00 | 0.10 | 0.05 | 82 | 1018.9 |
| 20260502042545 | 0 | 0 | 0.0 | 0.0 | 0.00 | 0.10 | 0.05 | 81 | 1018.9 |
| 20260502042047 | 0 | 0 | 0.0 | 0.0 | 0.00 | 0.10 | 0.05 | 81 | 1018.9 |
| 20260502041601 | 1 | 0 | 0.0 | 0.0 | 0.00 | 0.10 | 0.05 | 81 | 1018.9 |
| 20260502041052 | 1 | 0 | 0.0 | 0.0 | 0.00 | 0.10 | 0.05 | 81 | 1018.9 |
| 20260502040546 | 1 | 0 | 0.0 | 0.0 | 0.00 | 0.10 | 0.05 | 80 | 1018.9 |
| 20260502040056 | 1 | 0 | 0.0 | 0.0 | 0.00 | 0.10 | 0.05 | 80 | 1018.9 |
| 20260502035546 | 1 | 0 | 0.0 | 0.0 | 0.00 | 0.13 | 0.05 | 80 | 1018.8 |
| 20260502035046 | 1 | 0 | 0.0 | 0.0 | 0.00 | 0.13 | 0.05 | 80 | 1018.9 |
| 20260502034553 | 1 | 0 | 0.0 | 0.0 | 0.00 | 0.13 | 0.05 | 79 | 1018.8 |
| 20260502034047 | 1 | 0 | 0.0 | 0.0 | 0.00 | 0.13 | 0.05 | 78 | 1018.8 |
| 20260502033542 | 1 | 0 | 0.0 | 0.0 | 0.00 | 0.13 | 0.05 | 78 | 1018.7 |
| 20260502033051 | 1 | 0 | 0.0 | 0.0 | 0.00 | 0.13 | 0.05 | 77 | 1018.7 |
| 20260502032545 | 1 | 0 | 0.0 | 0.0 | 0.00 | 0.13 | 0.05 | 77 | 1018.7 |
| 20260502032046 | 1 | 0 | 0.0 | 0.0 | 0.00 | 0.13 | 0.05 | 76 | 1018.7 |
| 20260502031554 | 1 | 0 | 0.0 | 0.0 | 0.00 | 0.13 | 0.05 | 76 | 1018.7 |
| 20260502031045 | 1 | 0 | 0.0 | 0.0 | 0.00 | 0.13 | 0.05 | 76 | 1018.7 |
| 20260502030547 | 2 | 0 | 0.0 | 0.0 | 0.00 | 0.13 | 0.05 | 76 | 1018.7 |
| 20260502030058 | 2 | 0 | 0.0 | 0.0 | 0.00 | 0.13 | 0.05 | 76 | 1018.7 |
| 20260502025546 | 2 | 0 | 0.0 | 0.0 | 0.00 | 0.13 | 0.05 | 75 | 1018.7 |
| 20260502025046 | 2 | 0 | 0.0 | 0.0 | 0.00 | 0.13 | 0.05 | 75 | 1018.7 |
| 20260502024551 | 2 | 0 | 0.0 | 0.0 | 0.00 | 0.13 | 0.05 | 75 | 1018.7 |
| 20260502024047 | 2 | 0 | 0.0 | 0.0 | 0.00 | 0.13 | 0.05 | 74 | 1018.7 |
| 20260502023549 | 2 | 0 | 0.0 | 0.0 | 0.00 | 0.13 | 0.05 | 74 | 1018.6 |
| 20260502023055 | 2 | 0 | 0.0 | 0.0 | 0.00 | 0.13 | 0.05 | 73 | 1018.5 |
| 20260502022547 | 2 | 0 | 0.0 | 0.0 | 0.00 | 0.13 | 0.05 | 73 | 1018.5 |
| 20260502022045 | 2 | 0 | 0.0 | 1.6 | 0.00 | 0.13 | 0.05 | 73 | 1018.6 |
| 20260502021559 | 2 | 0 | 0.0 | 1.6 | 0.00 | 0.13 | 0.05 | 72 | 1018.5 |
| 20260502021045 | 2 | 0 | 0.0 | 3.2 | 0.00 | 0.13 | 0.05 | 72 | 1018.5 |
| 20260502020550 | 3 | 0 | 0.0 | 3.2 | 0.00 | 0.13 | 0.05 | 72 | 1018.5 |
| 20260502020051 | 3 | 0 | 0.0 | 4.8 | 0.00 | 0.13 | 0.05 | 71 | 1018.4 |
| 20260502015543 | 3 | 0 | 0.0 | 4.8 | 0.00 | 0.13 | 0.05 | 70 | 1018.4 |
| 20260502015044 | 3 | 0 | 0.0 | 0.0 | 0.00 | 0.13 | 0.05 | 69 | 1018.4 |
| 20260502014553 | 3 | 0 | 0.0 | 0.0 | 0.00 | 0.13 | 0.05 | 69 | 1018.3 |
| 20260502014045 | 3 | 0 | 0.0 | 0.0 | 0.00 | 0.13 | 0.05 | 69 | 1018.2 |
| 20260502013543 | 3 | 0 | 0.0 | 0.0 | 0.00 | 0.13 | 0.05 | 69 | 1018.2 |
| 20260502013057 | 3 | 0 | 0.0 | 0.0 | 0.00 | 0.13 | 0.05 | 69 | 1018.2 |
| 20260502012548 | 3 | 0 | 0.0 | 0.0 | 0.00 | 0.13 | 0.05 | 69 | 1018.2 |
| 20260502012048 | 3 | 0 | 0.0 | 3.2 | 0.00 | 0.13 | 0.05 | 69 | 1018.2 |
| 20260502011558 | 3 | 0 | 0.0 | 3.2 | 0.00 | 0.13 | 0.05 | 69 | 1018.1 |
| 20260502011046 | 3 | 0 | 0.0 | 3.2 | 0.00 | 0.13 | 0.05 | 69 | 1018.1 |
| 20260502010546 | 3 | 0 | 0.0 | 3.2 | 0.00 | 0.13 | 0.05 | 68 | 1018.1 |
| 20260502010104 | 3 | 0 | 0.0 | 3.2 | 0.00 | 0.13 | 0.05 | 67 | 1018.0 |
| 20260502005544 | 3 | 0 | 0.0 | 3.2 | 0.00 | 0.13 | 0.05 | 67 | 1018.1 |
| 20260502005043 | 4 | 0 | 0.0 | 0.0 | 0.00 | 0.13 | 0.05 | 67 | 1018.0 |
| 20260502004549 | 4 | 0 | 0.0 | 4.8 | 0.00 | 0.13 | 0.05 | 67 | 1018.1 |
| 20260502004047 | 4 | 0 | 0.0 | 4.8 | 0.00 | 0.13 | 0.05 | 67 | 1018.1 |
| 20260502003546 | 4 | 0 | 1.6 | 4.8 | 0.00 | 0.13 | 0.05 | 68 | 1018.0 |
| 20260502003053 | 4 | 0 | 0.0 | 3.2 | 0.00 | 0.13 | 0.05 | 67 | 1018.1 |
| 20260502002542 | 4 | 0 | 0.0 | 1.6 | 0.00 | 0.13 | 0.05 | 66 | 1018.0 |
| 20260502002047 | 4 | 0 | 0.0 | 1.6 | 0.00 | 0.13 | 0.05 | 66 | 1017.9 |
| 20260502001553 | 4 | 0 | 0.0 | 1.6 | 0.00 | 0.13 | 0.05 | 65 | 1017.9 |
| 20260502001046 | 4 | 0 | 0.0 | 0.0 | 0.00 | 0.13 | 0.05 | 65 | 1017.9 |
| 20260502000546 | 4 | 0 | 0.0 | 0.0 | 0.00 | 0.13 | 0.05 | 64 | 1018.0 |
| 20260502000054 | 4 | 0 | 0.0 | 3.2 | 0.00 | 0.13 | 0.05 | 64 | 1017.9 |
| 20260501235550 | 4 | 0 | 0.0 | 3.2 | 0.00 | 0.13 | 0.05 | 64 | 1018.0 |
| 20260501235046 | 4 | 0 | 0.0 | 3.2 | 0.00 | 0.13 | 0.05 | 65 | 1018.0 |
| 20260501234556 | 5 | 0 | 0.0 | 1.6 | 0.00 | 0.13 | 0.05 | 65 | 1017.9 |
| 20260501234045 | 4 | 0 | 0.0 | 3.2 | 0.00 | 0.13 | 0.05 | 67 | 1017.9 |
| 20260501233546 | 4 | 0 | 0.0 | 3.2 | 0.00 | 0.13 | 0.05 | 65 | 1017.9 |
| 20260501233104 | 4 | 0 | 0.0 | 3.2 | 0.00 | 0.13 | 0.05 | 67 | 1017.9 |
| 20260501232543 | 4 | 0 | 0.0 | 6.4 | 0.00 | 0.13 | 0.05 | 66 | 1017.9 |
| 20260501232045 | 4 | 0 | 0.0 | 6.4 | 0.00 | 0.13 | 0.05 | 65 | 1017.9 |
| 20260501231609 | 4 | 41 | 0.0 | 6.4 | 0.00 | 0.13 | 0.05 | 67 | 1018.0 |
| 20260501231048 | 4 | 0 | 0.0 | 6.4 | 0.00 | 0.13 | 0.05 | 68 | 1017.9 |
| 20260501230543 | 4 | 144 | 1.6 | 6.4 | 0.00 | 0.13 | 0.05 | 69 | 1017.9 |
| 20260501230108 | 4 | 0 | 1.6 | 8.0 | 0.00 | 0.13 | 0.05 | 65 | 1018.1 |
| 20260501225547 | 4 | 65 | 0.0 | 8.0 | 0.00 | 0.13 | 0.05 | 67 | 1018.1 |
| 20260501225047 | 5 | 0 | 3.2 | 8.0 | 0.00 | 0.13 | 0.05 | 67 | 1018.1 |
| 20260501224605 | 5 | 128 | 1.6 | 8.0 | 0.00 | 0.13 | 0.05 | 68 | 1018.1 |
| 20260501224046 | 4 | 14 | 0.0 | 8.0 | 0.00 | 0.13 | 0.05 | 69 | 1018.2 |
| 20260501223553 | 4 | 342 | 0.0 | 8.0 | 0.00 | 0.13 | 0.05 | 70 | 1018.1 |
| 20260501223100 | 4 | 43 | 0.0 | 8.0 | 0.00 | 0.13 | 0.05 | 70 | 1018.1 |
| 20260501222547 | 4 | 37 | 0.0 | 6.4 | 0.00 | 0.13 | 0.05 | 70 | 1018.1 |
| 20260501222047 | 4 | 18 | 1.6 | 11.3 | 0.00 | 0.13 | 0.05 | 72 | 1018.1 |
| 20260501221554 | 4 | 0 | 3.2 | 11.3 | 0.00 | 0.13 | 0.05 | 73 | 1018.0 |
| 20260501221047 | 4 | 0 | 1.6 | 11.3 | 0.00 | 0.13 | 0.05 | 74 | 1018.0 |
| 20260501220543 | 4 | 26 | 3.2 | 16.1 | 0.00 | 0.13 | 0.05 | 71 | 1018.1 |
| 20260501220107 | 4 | 34 | 3.2 | 16.1 | 0.00 | 0.13 | 0.05 | 73 | 1018.1 |
| 20260501215544 | 5 | 51 | 3.2 | 12.9 | 0.00 | 0.15 | 0.05 | 73 | 1018.0 |
| 20260501215049 | 5 | 80 | 0.0 | 6.4 | 0.00 | 0.15 | 0.05 | 74 | 1017.8 |
| 20260501214553 | 5 | 0 | 1.6 | 6.4 | 0.03 | 0.15 | 0.05 | 75 | 1017.7 |
| 20260501214047 | 5 | 360 | 1.6 | 8.0 | 0.03 | 0.15 | 0.05 | 76 | 1017.8 |
| 20260501213547 | 5 | 171 | 1.6 | 8.0 | 0.03 | 0.15 | 0.05 | 77 | 1017.6 |
| 20260501213052 | 5 | 17 | 1.6 | 8.0 | 0.03 | 0.15 | 0.05 | 76 | 1017.7 |
| 20260501212549 | 5 | 41 | 3.2 | 8.0 | 0.03 | 0.15 | 0.05 | 75 | 1017.6 |
| 20260501212043 | 5 | 0 | 1.6 | 8.0 | 0.03 | 0.15 | 0.05 | 77 | 1017.5 |
| 20260501211559 | 5 | 0 | 1.6 | 8.0 | 0.03 | 0.15 | 0.05 | 78 | 1017.4 |
| 20260501211042 | 4 | 336 | 1.6 | 6.4 | 0.03 | 0.15 | 0.05 | 79 | 1017.4 |
| 20260501210542 | 4 | 0 | 1.6 | 6.4 | 0.03 | 0.15 | 0.05 | 79 | 1017.4 |
| 20260501210054 | 4 | 0 | 0.0 | 8.0 | 0.03 | 0.15 | 0.05 | 79 | 1017.7 |
| 20260501205543 | 4 | 0 | 0.0 | 8.0 | 0.03 | 0.18 | 0.05 | 78 | 1017.7 |
| 20260501205047 | 5 | 40 | 0.0 | 4.8 | 0.03 | 0.18 | 0.05 | 74 | 1017.5 |
| 20260501204600 | 5 | 91 | 0.0 | 6.4 | 0.00 | 0.15 | 0.03 | 73 | 1017.6 |
| 20260501204044 | 5 | 0 | 0.0 | 8.0 | 0.00 | 0.15 | 0.03 | 72 | 1017.6 |
| 20260501203543 | 5 | 24 | 3.2 | 8.0 | 0.00 | 0.15 | 0.03 | 74 | 1017.6 |
| 20260501203052 | 5 | 0 | 0.0 | 4.8 | 0.00 | 0.15 | 0.03 | 71 | 1017.4 |
| 20260501202548 | 5 | 0 | 0.0 | 4.8 | 0.00 | 0.15 | 0.03 | 72 | 1017.4 |
| 20260501202047 | 5 | 0 | 0.0 | 4.8 | 0.00 | 0.15 | 0.03 | 70 | 1017.4 |
| 20260501201552 | 5 | 132 | 1.6 | 4.8 | 0.00 | 0.15 | 0.03 | 69 | 1017.4 |
| 20260501201046 | 6 | 0 | 0.0 | 6.4 | 0.00 | 0.15 | 0.03 | 72 | 1017.5 |
| 20260501200543 | 5 | 0 | 0.0 | 6.4 | 0.00 | 0.15 | 0.03 | 74 | 1017.4 |
| 20260501200051 | 5 | 0 | 1.6 | 8.0 | 0.00 | 0.15 | 0.03 | 74 | 1017.5 |
| 20260501195545 | 5 | 185 | 1.6 | 8.0 | 0.00 | 0.15 | 0.03 | 71 | 1017.5 |
| 20260501195046 | 5 | 121 | 0.0 | 4.8 | 0.00 | 0.15 | 0.03 | 70 | 1017.4 |
| 20260501194552 | 5 | 85 | 0.0 | 6.4 | 0.00 | 0.15 | 0.03 | 69 | 1017.5 |
| 20260501194047 | 5 | 31 | 0.0 | 6.4 | 0.00 | 0.15 | 0.03 | 68 | 1017.3 |
| 20260501193544 | 5 | 0 | 0.0 | 6.4 | 0.00 | 0.15 | 0.03 | 70 | 1017.3 |
| 20260501193053 | 5 | 5 | 0.0 | 6.4 | 0.00 | 0.15 | 0.03 | 69 | 1017.3 |
| 20260501192544 | 5 | 53 | 0.0 | 4.8 | 0.00 | 0.15 | 0.03 | 70 | 1017.3 |
| 20260501192048 | 5 | 0 | 0.0 | 4.8 | 0.00 | 0.15 | 0.03 | 70 | 1017.3 |
| 20260501191551 | 6 | 0 | 0.0 | 6.4 | 0.00 | 0.15 | 0.03 | 71 | 1017.3 |
| 20260501191045 | 5 | 0 | 0.0 | 6.4 | 0.00 | 0.15 | 0.03 | 68 | 1017.3 |
| 20260501190546 | 6 | 0 | 1.6 | 8.0 | 0.00 | 0.15 | 0.03 | 68 | 1017.3 |
| 20260501190049 | 6 | 128 | 1.6 | 8.0 | 0.00 | 0.15 | 0.03 | 70 | 1017.2 |
| 20260501185545 | 6 | 59 | 0.0 | 16.1 | 0.00 | 0.15 | 0.03 | 71 | 1017.3 |
| 20260501185045 | 6 | 111 | 3.2 | 16.1 | 0.00 | 0.15 | 0.03 | 70 | 1017.2 |
| 20260501184553 | 6 | 32 | 1.6 | 12.9 | 0.00 | 0.15 | 0.03 | 71 | 1017.1 |
| 20260501184046 | 6 | 111 | 1.6 | 9.7 | 0.00 | 0.15 | 0.03 | 73 | 1017.0 |
| 20260501183544 | 6 | 0 | 1.6 | 9.7 | 0.00 | 0.15 | 0.03 | 70 | 1017.0 |
| 20260501183102 | 6 | 65 | 1.6 | 9.7 | 0.00 | 0.15 | 0.03 | 73 | 1017.0 |
| 20260501182545 | 6 | 38 | 1.6 | 8.0 | 0.00 | 0.15 | 0.03 | 73 | 1017.0 |
| 20260501182045 | 6 | 36 | 1.6 | 8.0 | 0.00 | 0.15 | 0.03 | 72 | 1017.0 |
| 20260501181551 | 6 | 0 | 1.6 | 8.0 | 0.00 | 0.15 | 0.03 | 73 | 1017.1 |
| 20260501181047 | 5 | 0 | 1.6 | 12.9 | 0.00 | 0.15 | 0.03 | 77 | 1017.0 |
| 20260501180545 | 5 | 57 | 1.6 | 12.9 | 0.00 | 0.15 | 0.03 | 77 | 1016.9 |
| 20260501175544 | 5 | 0 | 4.8 | 12.9 | 0.00 | 0.15 | 0.03 | 75 | 1017.1 |
| 20260501175044 | 5 | 59 | 1.6 | 12.9 | 0.00 | 0.15 | 0.03 | 74 | 1017.0 |
| 20260501174552 | 5 | 0 | 1.6 | 12.9 | 0.00 | 0.15 | 0.03 | 75 | 1017.0 |
| 20260501174045 | 5 | 36 | 0.0 | 6.4 | 0.00 | 0.15 | 0.03 | 74 | 1016.8 |
| 20260501173547 | 6 | 15 | 0.0 | 11.3 | 0.00 | 0.15 | 0.03 | 76 | 1016.8 |
| 20260501173057 | 6 | 0 | 1.6 | 12.9 | 0.00 | 0.15 | 0.03 | 75 | 1016.8 |
| 20260501172546 | 6 | 126 | 1.6 | 12.9 | 0.00 | 0.15 | 0.03 | 75 | 1016.8 |
| 20260501172044 | 6 | 34 | 1.6 | 9.7 | 0.00 | 0.15 | 0.03 | 76 | 1016.8 |
| 20260501171559 | 5 | 0 | 1.6 | 14.5 | 0.00 | 0.15 | 0.03 | 75 | 1016.8 |
| 20260501171044 | 5 | 0 | 3.2 | 14.5 | 0.00 | 0.15 | 0.03 | 75 | 1016.8 |
| 20260501170544 | 5 | 42 | 1.6 | 14.5 | 0.00 | 0.15 | 0.03 | 76 | 1016.7 |
| 20260501170052 | 5 | 0 | 3.2 | 14.5 | 0.00 | 0.15 | 0.03 | 74 | 1016.7 |
| 20260501165545 | 6 | 31 | 1.6 | 14.5 | 0.00 | 0.15 | 0.03 | 72 | 1016.8 |
| 20260501165045 | 6 | 0 | 1.6 | 16.1 | 0.00 | 0.15 | 0.03 | 70 | 1016.8 |
| 20260501164552 | 7 | 0 | 4.8 | 16.1 | 0.00 | 0.15 | 0.03 | 66 | 1016.7 |
| 20260501164046 | 7 | 0 | 0.0 | 6.4 | 0.00 | 0.15 | 0.03 | 59 | 1016.5 |
| 20260501163545 | 7 | 0 | 1.6 | 6.4 | 0.00 | 0.15 | 0.03 | 59 | 1016.5 |
| 20260501163102 | 7 | 0 | 0.0 | 6.4 | 0.00 | 0.15 | 0.03 | 61 | 1016.5 |
| 20260501162547 | 7 | 5 | 0.0 | 8.0 | 0.00 | 0.15 | 0.03 | 60 | 1016.5 |
| 20260501162046 | 7 | 0 | 1.6 | 9.7 | 0.00 | 0.15 | 0.03 | 59 | 1016.6 |
| 20260501161555 | 7 | 22 | 1.6 | 11.3 | 0.00 | 0.15 | 0.03 | 60 | 1016.5 |
| 20260501161046 | 7 | 0 | 3.2 | 11.3 | 0.00 | 0.15 | 0.03 | 60 | 1016.5 |
| 20260501160546 | 8 | 0 | 3.2 | 9.7 | 0.00 | 0.15 | 0.03 | 58 | 1016.4 |
| 20260501160052 | 8 | 0 | 0.0 | 6.4 | 0.00 | 0.15 | 0.03 | 58 | 1016.3 |
| 20260501155548 | 8 | 343 | 0.0 | 11.3 | 0.00 | 0.15 | 0.03 | 60 | 1016.3 |
| 20260501155048 | 8 | 0 | 3.2 | 14.5 | 0.00 | 0.15 | 0.03 | 57 | 1016.3 |
| 20260501154600 | 8 | 0 | 0.0 | 17.7 | 0.00 | 0.15 | 0.03 | 55 | 1016.3 |
| 20260501154044 | 8 | 61 | 3.2 | 17.7 | 0.00 | 0.15 | 0.03 | 56 | 1016.3 |
| 20260501153548 | 8 | 96 | 1.6 | 12.9 | 0.00 | 0.15 | 0.03 | 56 | 1016.2 |
| 20260501153053 | 8 | 12 | 0.0 | 9.7 | 0.00 | 0.15 | 0.03 | 60 | 1016.3 |
| 20260501152543 | 7 | 288 | 0.0 | 8.0 | 0.00 | 0.15 | 0.03 | 61 | 1016.2 |